1141 visiteurs
Prévisions de votre ville :
Vigilance : 61 départements 4 départements Mise à jour le 16/12/2019 à 10:10 - Voir la carte

Paris Roissy CDG (95380) le 16/12/2019 à 11:00 Choisir station

9°C 93 % SSE Vit. moyenne 13 kmh/h

Relevés météo quotidiens pour la station de :

UTC
S: Synop
M: Metar
Loc T°C
(°C)
Td
(°C)
HR
(%)
Vis
(km)
Néb
(octa)
Vent
(km/h)
Pression
(mb)
Précipitations
(mm)
Temps
              MOY
10 min
DIR RAF 1h MESURE VAR SUR 3h    
S 00 h 02h 23.6 21.5 88 19 8/8 6 13 1011.1 -0.1/3h 0.0/3h
S 01 h 03h 23.4 21.3 88 21 8/8 4 9 1011.2 +0.1/3h 0.0/1h
S 02 h 04h 23.6 21.3 87 25 7/8 6 9 1011.3 +0.3/3h 0.0/1h
S 03 h 05h 23.0 20.9 88 23 7/8 2 4 1010.9 -0.2/3h 0.0/3h
S 04 h 06h 23.3 21.0 87 25 8/8 2 11 1011.1 -0.1/3h 0.0/1h
S 05 h 07h 23.7 20.8 84 26 8/8 4 7 1011.7 +0.4/3h 0.0/1h
S 06 h 08h 24.6 21.1 81 18 6/8 4 7 1012.0 +1.1/3h 0.0/3h
S 07 h 09h 27.1 21.8 73 19 - 4 6 1012.1 +1.0/3h 0.0/1h -
S 08 h 10h 27.9 21.4 68 19 - 6 9 1012.3 +0.6/3h 0.0/1h -
S 09 h 11h 28.1 19.6 60 45 - 13 20 1012.4 +0.4/3h 0.0/3h -
S 10 h 12h 28.4 21.2 65 40 - 13 24 1012.5 +0.4/3h 0.0/1h -
S 11 h 13h 28.3 21.1 65 35 - 13 22 1011.9 -0.4/3h 0.0/1h -
S 12 h 14h 28.6 21.6 66 19 - 15 28 1011.8 -0.6/3h 0.0/6h - 0.0/3h -
S 13 h 15h 28.8 22.1 67 19 - 15 28 1011.7 -0.8/3h 0.0/1h -
S 14 h 16h 29.0 22.2 67 27 - 13 26 1011.3 -0.6/3h 0.0/1h -
S 15 h 17h 28.3 22.1 69 17 - 13 22 1010.6 -1.2/3h 0.0/3h -
S 16 h 18h 27.7 22.0 71 19 - 7 11 1010.3 -1.4/3h 0.0/1h -
S 17 h 19h 27.6 21.4 69 19 - 13 28 1010.0 -1.3/3h 0.0/1h -
S 18 h 20h 27.8 21.6 69 45 - 7 19 1009.9 -0.7/3h 0.0/12h - 0.0/3h -
S 19 h 21h 26.0 21.4 76 35 - 7 13 1009.7 -0.6/3h 0.0/1h -
S 20 h 22h 24.8 21.5 82 30 - 4 7 1009.7 -0.3/3h 0.0/1h -
S 21 h 23h 24.0 20.5 81 30 - 4 6 1009.9 0.0/3h 0.0/3h -
S 22 h 00h 22.9 19.9 83 25 - 4 7 1009.5 -0.2/3h 0.0/1h -
S 23 h 01h 22.2 19.7 86 22 - 6 11 1009.5 -0.2/3h 0.0/1h -
evolution des temperatures
cumul des precipitations
vent moyen et rafales
pression atmospherique

Un tiret (-) signifie que les données ne sont pas disponibles.

Passez la souris sur les pictos temps pour avoir plus de précisions. Passez les flèches sur l'icône de la direction du vent pour voir la direction précise en degrés.

Les données de l'heure en cours sont disponibles à partir de H+15 minutes.


S signifie station Synop, plus complète qu'une station Metar (M). Il y a +1h de différence entre l'heure UTC et l'heure légale en hiver et +2h en été.

Td est la mesure du point de rosée.

HR est l'humidité relative/p>

Vis est la visibilité

Néb est la nébulosité du ciel (couverture nuageuse) exprimée en octas (de 0/8 à 8/8).

Vent moy 10 min donne le vent moyen sur les 10 minutes qui précèdent le relevé.

Vent raf 1h donne la rafale maximale mesurée dans l'heure qui précède le relevé.


Les données les plus anciennes remontent à avril 2014.

Les données présentées sur cette page proviennent des stations météo officielles. Les relevés sont effectués aux normes en vigueur (anémomètre à 10m de haut, thermomètre sous abri normalisé à 2m du sol...)

Météo 60 décline toute responsabilité en cas d'absence de données, d'erreurs, de mauvaise utilisation ou interprétation et n'est pas habilité à fournir des certificats intempéries.